Location: Winthrop
(48.4780°N, 120.1850°W)
Time: 06:50:15
(UTC-08:00)

Vanguard 1 Rocket - Visible Passes

Search period start: 27 January 2023 00:00
Search period end: 06 February 2023 00:00
Orbit: 650 x 4225 km, 34.3° (Epoch: 26 January)

Date Brightness Start Highest point End Pass type
(mag) Time Alt. Az. Time Alt. Az. Time Alt. Az.
27 Jan 11.2 17:41:40 10° W 18:02:11 50° SSW 18:25:53 10° SE visible
27 Jan 11.5 20:11:50 10° W 20:31:18 30° SW 20:49:41 10° S visible
28 Jan 11.4 18:57:21 10° W 19:17:48 39° SSW 19:39:10 10° SSE visible
28 Jan 11.7 21:32:37 10° W 21:45:02 16° SW 21:56:43 10° SSW visible
29 Jan 11.3 17:44:03 10° W 18:03:45 47° SSW 18:27:11 10° SE visible
29 Jan 11.6 20:14:50 10° W 20:32:26 26° SW 20:49:44 10° S visible
30 Jan 11.6 18:59:57 10° W 19:19:09 35° SW 19:39:50 10° SSE visible
30 Jan 11.9 21:39:28 10° WSW 21:46:01 12° WSW 21:52:27 10° SW visible
31 Jan 11.5 17:46:34 10° W 18:05:20 42° SSW 18:28:13 10° SE visible
31 Jan 11.8 20:18:23 10° W 20:33:35 21° SW 20:48:59 10° S visible
01 Feb 11.8 19:02:50 10° W 19:20:30 29° SW 19:40:01 10° S visible
02 Feb 11.6 17:49:12 10° W 18:06:54 37° SSW 18:28:54 10° SSE visible
02 Feb 12.0 20:23:00 10° W 20:34:46 16° SW 20:46:54 10° SSW visible
03 Feb 11.9 19:06:06 10° W 19:21:51 24° SW 19:39:35 10° S visible
04 Feb 11.8 17:52:03 10° W 18:08:29 32° SSW 18:29:10 10° SSE visible
04 Feb 12.2 20:30:57 10° WSW 20:36:00 11° SW 20:41:10 10° SW visible
05 Feb 12.0 19:10:01 10° W 19:23:16 19° SW 19:38:13 10° S visible
